Location: Erdweis
(48.5167°N, 15.3500°E)
Time: 01:13:17
(UTC+00:00)

NOSS 2-2 (C) - Pass Details

Date: 23 January 2021
Orbit: 463 x 1745 km, 63.3° (Epoch: 03 March)

Event Time Altitude Azimuth Distance (km) Brightness Sun altitude
Rises 17:28:48 0° 319° (NW) 2,841 7.4 -17.3°
Reaches altitude 10° 17:31:21 10° 337° (NNW) 2,089 6.4 -17.7°
Maximum altitude 17:34:57 21° 26° (NNE) 1,703 5.5 -18.3°
Enters shadow 17:35:29 20° 35° (NE) 1,750 5.5 -18.4°
